FW3073 Weather Reports


Display with metric or nautical units.
time (UTC)temp
F
wind
direction
speed
MPH
gust
MPH
rain 1hr
in
rain 24hr
in
rain mn
in
humidity
%
barometer
mb
20260901171003 70 80 3.0 9.0 0.00 0.00 0.00 58 1017.6
20260901170003 70 67 2.0 7.0 0.00 0.00 0.00 58 1017.6
20260901165004 70 55 2.0 9.0 0.00 0.00 0.00 59 1017.6
20260901164214 70 56 2.0 13.0 0.00 0.00 0.00 64 1017.2
20260901163003 68 71 2.0 8.0 0.00 0.00 0.00 71 1017.6
20260901162003 67 62 1.0 4.0 0.00 0.00 0.00 73 1017.6
20260901161003 66 314 1.0 8.0 0.00 0.00 0.00 74 1017.6
20260901160003 66 327 1.0 6.0 0.00 0.00 0.00 73 1017.6
20260901155003 65 77 1.0 7.0 0.00 0.00 0.00 76 1017.6
20260901154214 67 59 1.0 4.0 0.00 0.00 0.00 72 1017.6
20260901153003 68 67 1.0 4.0 0.00 0.00 0.00 67 1017.6
20260901152003 69 70 2.0 6.0 0.00 0.00 0.00 66 1017.2
20260901151003 69 72 2.0 14.0 0.00 0.00 0.00 67 1017.2
20260901150003 68 44 2.0 7.0 0.00 0.00 0.00 67 1017.6
20260901145003 67 287 1.0 7.0 0.00 0.00 0.00 68 1017.2
20260901144003 67 73 1.0 3.0 0.00 0.00 0.00 73 1017.2
20260901143003 66 98 1.0 4.0 0.00 0.00 0.00 74 1017.2
20260901142213 67 286 1.0 4.0 0.00 0.00 0.00 71 1017.2
20260901141003 68 307 2.0 6.0 0.00 0.00 0.00 69 1017.2
20260901140003 68 326 2.0 6.0 0.00 0.00 0.00 70 1016.9
20260901135003 68 275 1.0 3.0 0.00 0.00 0.00 70 1016.9
20260901134003 70 276 1.0 7.0 0.00 0.00 0.00 69 1016.9
20260901133003 69 292 1.0 3.0 0.00 0.00 0.00 68 1016.5
20260901132003 68 222 1.0 3.0 0.00 0.00 0.00 70 1016.9
20260901131003 67 248 0.0 3.0 0.00 0.00 0.00 71 1016.9
20260901130003 66 300 1.0 3.0 0.00 0.00 0.00 73 1016.9
20260901125003 65 312 1.0 4.0 0.00 0.00 0.00 73 1016.9
20260901124003 64 290 1.0 4.0 0.00 0.00 0.00 74 1016.9
20260901123003 63 281 1.0 3.0 0.00 0.00 0.00 75 1016.9
20260901122003 63 303 1.0 4.0 0.00 0.00 0.00 76 1016.9
20260901121214 62 287 1.0 3.0 0.00 0.00 0.00 75 1016.9
20260901120003 61 279 1.0 2.0 0.00 0.00 0.00 77 1016.9
20260901115003 60 248 0.0 2.0 0.00 0.00 0.00 79 1016.5
20260901114003 59 239 1.0 2.0 0.00 0.00 0.00 81 1016.9
20260901113003 59 261 0.0 1.0 0.00 0.00 0.00 82 1016.9
20260901112003 57 257 1.0 2.0 0.00 0.00 0.00 86 1016.5
20260901111003 57 265 0.0 2.0 0.00 0.00 0.00 89 1016.9
20260901110003 55 228 1.0 2.0 0.00 0.00 0.00 93 1016.5
20260901105003 54 223 0.0 3.0 0.00 0.00 0.00 96 1016.2
20260901104003 53 218 0.0 2.0 0.00 0.00 0.00 97 1016.5
20260901103003 53 226 0.0 1.0 0.00 0.00 0.00 97 1016.2
20260901102003 53 225 0.0 1.0 0.00 0.00 0.00 97 1015.8
20260901101003 53 230 0.0 1.0 0.00 0.00 0.00 97 1016.2
20260901100003 53 231 0.0 1.0 0.00 0.00 0.00 97 1016.2
20260901095003 53 0 0.0 0.0 0.00 0.00 0.00 97 1015.8
20260901094003 53 0 0.0 0.0 0.00 0.00 0.00 97 1016.2
20260901093003 53 0 0.0 0.0 0.00 0.00 0.00 97 1015.8
20260901092213 53 0 0.0 0.0 0.00 0.00 0.00 97 1015.8
20260901091003 53 294 0.0 1.0 0.00 0.00 0.00 97 1016.2
20260901090003 54 294 0.0 1.0 0.00 0.00 0.00 97 1015.8
20260901085003 54 294 0.0 1.0 0.00 0.00 0.00 97 1015.8
20260901084003 54 0 0.0 0.0 0.00 0.00 0.00 97 1015.8
20260901083003 54 0 0.0 0.0 0.00 0.00 0.00 96 1015.5
20260901082003 54 0 0.0 0.0 0.00 0.00 0.00 96 1015.5
20260901081003 55 0 0.0 0.0 0.00 0.00 0.00 96 1015.5
20260901080213 55 0 0.0 0.0 0.00 0.00 0.00 96 1015.5
20260901075003 56 0 0.0 0.0 0.00 0.00 0.00 95 1015.5
20260901074213 56 0 0.0 0.0 0.00 0.00 0.00 95 1015.2
20260901073003 57 0 0.0 0.0 0.00 0.00 0.00 94 1015.5
20260901072003 57 0 0.0 0.0 0.00 0.00 0.00 94 1015.5
20260901071003 57 0 0.0 0.0 0.00 0.00 0.00 95 1015.5
20260901070004 57 0 0.0 0.0 0.00 0.00 0.00 95 1015.8
20260901065003 57 0 0.0 0.0 0.00 0.00 0.00 95 1015.2
20260901064003 57 0 0.0 0.0 0.00 0.00 0.00 94 1015.2
20260901063003 57 0 0.0 0.0 0.00 0.00 0.00 94 1015.5
20260901062003 57 294 0.0 1.0 0.00 0.00 0.00 94 1015.5
20260901061003 57 294 0.0 1.0 0.00 0.00 0.00 94 1015.2
20260901060214 57 294 0.0 1.0 0.00 0.00 0.00 94 1015.2
20260901055214 57 294 0.0 1.0 0.00 0.00 0.00 95 1015.2
20260901054004 58 0 0.0 0.0 0.00 0.00 0.00 94 1015.2
20260901053003 58 0 0.0 0.0 0.00 0.00 0.00 94 1014.8
20260901052004 58 0 0.0 0.0 0.00 0.00 0.00 93 1015.2
20260901051003 59 0 0.0 0.0 0.00 0.01 0.00 92 1015.2
20260901050003 59 0 0.0 0.0 0.00 0.02 0.00 92 1015.2
20260901045003 60 0 0.0 0.0 0.00 0.02 0.00 92 1015.2
20260901044003 59 0 0.0 0.0 0.00 0.02 0.00 92 1015.5
20260901043213 59 0 0.0 0.0 0.00 0.02 0.00 92 1015.2
20260901042003 59 0 0.0 0.0 0.00 0.03 0.00 92 1014.8
20260901041003 59 0 0.0 0.0 0.00 0.03 0.00 92 1015.2
20260901040003 59 0 0.0 0.0 0.00 0.03 0.00 92 1014.8
20260901035003 59 0 0.0 0.0 0.00 0.03 0.00 91 1014.8
20260901034004 60 0 0.0 0.0 0.00 0.03 0.00 91 1014.8
20260901033003 60 0 0.0 0.0 0.00 0.03 0.00 91 1014.8
20260901032003 60 0 0.0 0.0 0.00 0.05 0.00 90 1014.8
20260901031003 60 0 0.0 0.0 0.00 0.05 0.00 89 1014.8
20260901030004 60 0 0.0 0.0 0.00 0.05 0.00 89 1014.8
20260901025213 60 0 0.0 0.0 0.00 0.05 0.05 89 1014.8
20260901024003 60 0 0.0 0.0 0.00 0.05 0.05 89 1015.2
20260901023003 60 0 0.0 0.0 0.00 0.05 0.05 89 1014.8
20260901022003 61 296 0.0 1.0 0.00 0.05 0.05 89 1014.8
20260901021003 61 0 0.0 0.0 0.00 0.05 0.05 89 1014.5
20260901020003 61 0 0.0 0.0 0.00 0.05 0.05 88 1014.5
20260901015004 61 0 0.0 0.0 0.00 0.05 0.05 89 1014.8
20260901014003 61 0 0.0 0.0 0.00 0.05 0.05 89 1014.5
20260901013003 61 0 0.0 0.0 0.00 0.05 0.05 89 1014.5
20260901012003 61 0 0.0 0.0 0.00 0.05 0.05 89 1014.5
20260901011004 61 0 0.0 0.0 0.00 0.05 0.05 89 1014.8
20260901010004 61 0 0.0 0.0 0.00 0.05 0.05 88 1014.5
20260901005003 62 0 0.0 0.0 0.00 0.05 0.05 87 1014.5
20260901004003 62 0 0.0 0.0 0.00 0.05 0.05 87 1014.5
20260901003003 62 0 0.0 0.0 0.00 0.05 0.05 87 1014.5
20260901002003 61 0 0.0 0.0 0.00 0.05 0.05 87 1014.5
20260901001003 61 0 0.0 0.0 0.00 0.05 0.05 88 1014.5
20260901000003 61 0 0.0 0.0 0.00 0.05 0.05 88 1014.1
20260831235003 61 0 0.0 0.0 0.00 0.05 0.05 87 1013.8
20260831234003 61 0 0.0 0.0 0.00 0.05 0.05 87 1013.8
20260831233003 62 0 0.0 0.0 0.00 0.05 0.05 86 1013.8
20260831232003 62 0 0.0 0.0 0.00 0.05 0.05 85 1013.8
20260831231213 62 0 0.0 0.0 0.00 0.05 0.05 85 1013.8
20260831230213 62 0 0.0 0.0 0.00 0.05 0.05 85 1013.8
20260831225003 62 0 0.0 0.0 0.00 0.05 0.05 83 1013.5
20260831224003 63 0 0.0 0.0 0.00 0.05 0.05 81 1013.5
20260831223003 64 0 0.0 0.0 0.00 0.05 0.05 79 1013.5
20260831222003 65 0 0.0 0.0 0.00 0.05 0.05 75 1013.5
20260831221003 66 0 0.0 0.0 0.00 0.05 0.05 71 1013.5
20260831220003 67 0 0.0 0.0 0.00 0.05 0.05 67 1013.1
20260831215003 68 316 0.0 1.0 0.00 0.05 0.05 61 1013.1
20260831214003 69 273 0.0 2.0 0.00 0.05 0.05 58 1013.5
20260831213004 71 288 0.0 2.0 0.00 0.05 0.05 55 1013.5
20260831212003 71 284 1.0 3.0 0.00 0.05 0.05 53 1013.5
20260831211003 72 298 1.0 4.0 0.00 0.05 0.05 53 1013.1
20260831210003 74 247 1.0 2.0 0.00 0.05 0.05 51 1013.5
20260831205003 74 305 1.0 2.0 0.00 0.05 0.05 48 1013.5
20260831204003 74 236 1.0 4.0 0.00 0.05 0.05 48 1013.1
20260831203003 74 314 1.0 7.0 0.00 0.05 0.05 49 1013.1
20260831202003 74 284 1.0 4.0 0.00 0.05 0.05 48 1013.1
20260831201003 74 298 1.0 4.0 0.00 0.05 0.05 48 1013.1
20260831200214 73 279 1.0 4.0 0.00 0.05 0.05 49 1013.1
20260831195214 73 326 1.0 7.0 0.00 0.05 0.05 49 1013.1
20260831194214 73 280 1.0 6.0 0.00 0.05 0.05 48 1013.1
20260831193003 74 312 1.0 3.0 0.00 0.05 0.05 48 1013.1
20260831192003 74 271 1.0 4.0 0.00 0.05 0.05 46 1013.1
20260831191214 74 277 1.0 4.0 0.00 0.05 0.05 47 1012.8
20260831190003 73 266 1.0 6.0 0.00 0.05 0.05 46 1012.8
20260831185003 73 306 1.0 4.0 0.00 0.05 0.05 48 1012.8
20260831184214 73 316 1.0 7.0 0.00 0.05 0.05 52 1012.8
20260831183003 73 329 1.0 4.0 0.00 0.05 0.05 49 1012.8
20260831182003 72 329 2.0 6.0 0.00 0.05 0.05 48 1012.8
20260831181003 72 305 1.0 7.0 0.00 0.05 0.05 49 1012.8
20260831180003 72 339 2.0 6.0 0.00 0.05 0.05 50 1012.8
20260831175213 72 211 1.0 3.0 0.00 0.05 0.05 50 1012.8
20260831174003 71 345 2.0 7.0 0.00 0.05 0.05 51 1013.1
20260831173003 71 306 2.0 7.0 0.00 0.05 0.05 55 1013.1
20260831172003 71 283 1.0 4.0 0.00 0.05 0.05 51 1013.1